This is the latest recevied weather packets stored in our database for station/object EA1L-13. If no packets are shown the sender has not sent any weather packets the latest 10 day(s).
| Time | Temp. | Humidity | Pressure | Rain* | Wind** | Luminosity | Snow |
|---|---|---|---|---|---|---|---|
| 1777824904 | 13.33° C | 100% | 1010.6 hPa | 1.78 mm | - | - | - |
| 1777824004 | 13.33° C | 100% | 1010.4 hPa | 2.03 mm | - | - | - |
| 1777823104 | 13.33° C | 100% | 1010.4 hPa | 3.05 mm | - | - | - |
| 1777822204 | 12.78° C | 100% | 1010.3 hPa | 3.3 mm | - | - | - |
| 1777821305 | 12.78° C | 100% | 1010.5 hPa | 3.56 mm | - | - | - |
| 1777820404 | 12.78° C | 100% | 1010.4 hPa | 2.29 mm | - | - | - |
| 1777819505 | 12.78° C | 100% | 1010.4 hPa | 1.27 mm | - | - | - |
| 1777817704 | 12.78° C | 100% | 1010.5 hPa | 0.51 mm | - | - | - |
| 1777816804 | 12.22° C | 100% | 1010.5 hPa | 1.27 mm | - | - | - |
| 1777815904 | 12.78° C | 100% | 1010.5 hPa | 6.86 mm | - | - | - |
| 1777815005 | 12.78° C | 100% | 1010.1 hPa | 6.86 mm | - | - | - |
| 1777814104 | 12.22° C | 98% | 1010.6 hPa | 6.35 mm | - | - | - |
| 1777813205 | 12.78° C | 96% | 1010.6 hPa | 5.59 mm | - | - | - |
| 1777812304 | 13.33° C | 96% | 1010.2 hPa | 0 mm | - | - | - |
| 1777811405 | 13.89° C | 98% | 1010 hPa | 0 mm | - | - | - |
| 1777810504 | 14.44° C | 100% | 1010.1 hPa | 0 mm | - | - | - |
| 1777809604 | 15° C | 100% | 1010.1 hPa | 0 mm | - | - | - |
| 1777808705 | 15.56° C | 100% | 1010.2 hPa | 0 mm | - | - | - |
| 1777807805 | 16.11° C | 100% | 1010.5 hPa | 0 mm | - | - | - |
| 1777806904 | 16.67° C | 100% | 1010.6 hPa | 0 mm | - | - | - |
| 1777806005 | 16.67° C | 100% | 1010.6 hPa | 0 mm | - | - | - |
| 1777805104 | 17.22° C | 100% | 1010.7 hPa | 0 mm | - | - | - |
| 1777804204 | 17.22° C | 100% | 1010.7 hPa | 0 mm | - | - | - |
| 1777803304 | 17.22° C | 100% | 1010.8 hPa | 0 mm | - | - | - |
| 1777802404 | 17.22° C | 100% | 1010.8 hPa | 0 mm | - | - | - |
* Rain latest hour (hover to see other rain measurements)
** Current wind speed in m/s (hover to see current wind gust speed)